KOSEN-1

导读

KOSEN-1是日本于2021年11月9日发射的特色卫星,由日本佛教界出资研发,是全球首颗具备“太空寺庙”功能的卫星。它搭载一尊缩小佛像与缩小版佛教经典壁画仿制品入轨,可配合地面寺庙开展太空祈福活动。这颗卫星既展现日本民用航天的多元化探索,也侧面反映出日本航天技术的成熟度,引发国际航天界与宗教界的广泛关注。

基本信息
目录编号:
49402
目录名称:
KOSEN-1
国际标识:
2021-102H
轨道中心:
EARTH
卫星名称:
KOSEN-1
卫星全名:
--
卫星状态:
在轨 (已飞行1708 天)
发射日期:
2021-11-09 UTC
国别 :
日本 (JP)
星等 :
--
轨道信息
数据来源 国际轨道数据
星历时间: 2026-07-14T00:20:40+0800
14小时前
查看轨道信息
半长轴: 6862.324km
偏心率: 0.0015368
轨道倾角: 97.317°
近地点辐角 112.358°
升交点赤经 236.327°
平近点角 247.929°
近地点: 473.64km
远地点: 494.734km
周期: 94.290分钟
每日圈数: 15.272003
详细信息
使用方式:
暂无
2D轨道图
3D轨道图
轨道高度分析图
轨道倾角分析图
轨道综合分析图
查看轨道综合分析图